Tracking 22454 objects as of 5-Mar-2021
HD Live streaming from Space Station
objects crossing your sky now

BREEZE-M R/B

Track BREEZE-M R/B now!


NORAD ID: 39488
Int'l Code: 2013-077B
Perigee: 35,778.7 km
Apogee: 35,808.9 km
Inclination: 0.1 °
Period: 1,436.1 minutes
Semi major axis: 42164 km
RCS: Unknown
Launch date: December 26, 2013
Source: Commonwealth of Independent States (former USSR) (CIS)
Launch site: TYURATAM MISSILE AND SPACE COMPLEX (TTMTR)

Note: This is a ROCKET BODY
aabbcc
Your satellite tracking list
Your tracking list is empty




NASA's NSSDC Master Catalog

Two Line Element Set (TLE):
1 39488U 14001A   21062.62960000 -.00000086  00000-0  00000+0 0  9996
2 39488   0.0775 269.0572 0003575  25.2961 167.8915  1.00271583 23581
Source of the keplerian elements: AFSPC